Location: Unspecified
(0.0000°N, 0.0000°E)
Time: 09:37:04
(UTC+02:00)

Cosmos 1295 Rocket - Visible Passes

Search period start: 01 September 2014 00:00
Search period end: 11 September 2014 00:00
Orbit: 945 x 993 km, 82.9° (Epoch: 31 August)

Date Brightness Start Highest point End Pass type
(mag) Time Alt. Az. Time Alt. Az. Time Alt. Az.
01 Sep 5.0 06:53:29 10° S 06:59:29 63° E 07:05:30 10° NNE visible
02 Sep 4.5 07:16:56 10° SSW 07:22:56 63° W 07:28:58 10° N visible
02 Sep 8.0 20:25:27 10° WNW 20:27:11 11° W 20:28:55 10° WSW visible
03 Sep 6.8 05:57:05 10° SE 06:01:28 21° E 06:05:50 10° NE visible
04 Sep 5.6 06:19:09 10° SSE 06:24:54 44° E 06:30:40 10° NNE visible
05 Sep 4.4 06:42:15 10° S 06:48:21 88° W 06:54:29 10° N visible
06 Sep 7.2 05:23:49 10° ESE 05:26:53 14° E 05:29:57 10° ENE visible
06 Sep 4.8 07:06:07 10° SSW 07:11:48 41° W 07:17:31 10° NNW visible
07 Sep 6.1 05:45:02 10° SSE 05:50:20 31° E 05:55:38 10° NNE visible
07 Sep 5.6 07:31:04 10° SW 07:35:15 19° W 07:39:29 10° NW visible
08 Sep 4.7 06:07:43 10° S 06:13:46 67° E 06:19:51 10° NNE visible
09 Sep 4.4 06:31:14 10° SSW 06:37:13 59° W 06:43:15 10° N visible
10 Sep 6.5 05:11:10 10° SE 05:15:45 22° E 05:20:21 10° NE visible
10 Sep 5.2 06:55:36 10° SW 07:00:40 28° W 07:05:47 10° NNW visible
